Regional Weather Roundup
Issued by NWS Newport/Morehead, NC

Current Version | Previous Version | Graphics & Text | Print | Product List | Glossary Off
Versions: 1 2 3 4 5 6 7 8 9 10 11 12 13 14 15 16 17 18 19 20 21 22 23 24 25 26 27 28 29 30 31 32 33 34 35 36 37 38 39 40 41 42 43 44 45 46 47 48 49 50

000
ASUS42 KMHX 071325
RWRMHX
WEATHER ROUNDUP FOR EASTERN NORTH CAROLINA
NATIONAL WEATHER SERVICE NEWPORT/MOREHEAD CITY NC
900 AM EDT TUE JUL 07 2015

NOTE: "FAIR" INDICATES FEW OR NO CLOUDS BELOW 12,000 FEET
WITH NO SIGNIFICANT WEATHER AND/OR OBSTRUCTIONS TO VISIBILITY

NCZ015>017-031-032-045>047-102-103-071400-
NORTH COAST

CITY           SKY/WX    TMP DP  RH WIND       PRES   REMARKS
EDENTON          N/A     80  73  78 SW9       30.13S
ELIZABETH CITY SUNNY     81  74  79 SW10      30.13S
KITTY HAWK     SUNNY     82  74  78 W7        30.13S
MANTEO         MOSUNNY   81  73  77 W7        30.15S

$$

NCZ045>047-081-094-103-104-071400-
CENTRAL COAST

CITY           SKY/WX    TMP DP  RH WIND       PRES   REMARKS
FRISCO         SUNNY     78  74  87 SW9       30.15S
SWANQUARTER      N/A     82 N/A N/A W6G12     30.12S

$$

NCZ095-097-098-100-101-071400-
SOUTHERN COAST

CITY           SKY/WX    TMP DP  RH WIND       PRES   REMARKS
BEAUFORT       MOSUNNY   82  73  74 SW9       30.16R
CEDAR ISLAND     N/A     82 N/A N/A SW6       30.18S
JACKSONVILLE   SUNNY     80  72  76 SW7       30.15R
PINEY ISLAND     N/A    N/A N/A N/A SW8       30.15R
WILMINGTON     SUNNY     82  72  71 SW10      30.16R


$$

NCZ011>013-027>030-043-044-078>080-089-090>093-098-071400-
COASTAL PLAIN

CITY           SKY/WX    TMP DP  RH WIND       PRES   REMARKS
AHOSKIE        SUNNY     78  72  84 CALM      30.13S
CLINTON        SUNNY     79  74  87 SW3       30.15R
ELIZABETHTOWN  SUNNY     80  73  79 SW5       30.15R
GOLDSBORO      SUNNY     79  74  84 S7        30.12R
GREENVILLE     SUNNY     81  73  78 W7        30.15S
HAVELOCK       SUNNY     82  72  71 SW10      30.16R
KENANSVILLE    SUNNY     78  72  81 SW5       30.16R
KINSTON        SUNNY     81  73  78 S7        30.15R
NEW BERN       SUNNY     81  74  79 SW8       30.16S
RICHLANDS      SUNNY     82  72  69 S7        30.15S
ROCKY MOUNT    SUNNY     79  73  82 SW6       30.13S
WASHINGTON     SUNNY     80  73  79 SW8       30.14S
WHITEVILLE     SUNNY     79  73  80 W3        30.15S

$$

AMZ130-135-150-152-154-156-158-170-250-252-270-ANZ085-086-088-633-658-670-071400-
MARINE OBSERVATIONS

STATION/POSITION TIME  TEMP    WIND        PRES    WAVE   SWELL
                       AIR SEA DIR/SP/G            HT/PER HT/PER
                 (UTC) (F)     (DEG/KT/KT) (MB)    (FT/S) (FT/S)
CHESAPEAKE LIGHT 1300   77     220/ 15/ 16 1020.1
64 E VA BEACH    1250   78 76  210/ 12/ 14 1019.9    3/ 9   2/ 9
DUCK             1300   79 72  210/  9/ 11   N/A
2 E DUCK         1211      75                N/A     2/13   2/13
OREGON INLET     1300   80 81  220/ 10/ 12 1020.5
13E OREGON INLT  1300      78                N/A     3/ 4   2/14
HATTERAS CG      1300   80 80  210/  7/  9 1020.7
DIAMOND BUOY     1250   80 82  250/  8/ 10 1021.0    3/ 9   3/ 9
CAPE LOOKOUT     1300   81     250/  9/ 12 1021.1
BEAUFORT LAB     1300   81 81  240/  6/ 11 1020.5
30 SE NEW RVR IN NOT AVBL
27 SE WRIGHTSVLE 1300      80  250/ 10/ 12   N/A
5 SE WRIGHTSVLE  1208   79 78  230/  4/  8 1021.2
225 S CAPE HAT   1250   81 81  190/ 12/ 14 1023.4    4/ 8   3/ 8
41 SE CHARLESTON 1250   81 83  230/  8/ 10 1021.1    3/ 8   3/ 8

$$


USA.gov is the U.S. government's official web portal to all federal, state and local government web resources and services.